sat.trackr.live / text

‹ back to catalog

STARLINK-36722

NORAD 67917 · 2026-036P

PAYLOAD ACTIVE UNKNOWN

§ Identity

Operator
Country
US
Launch date
2026-02-22
Launch site
AFETR
Launch vehicle
Mass (kg)
RCS (m²)

Purposes: comms

External: N2YO · Heavens-Above · Gunter

§ Orbital elements

Epoch: 2026-05-25T02:42:56.204928Z

Period
94.27 min
Inclination
42.9995°
Eccentricity
0.0002124
Mean motion
15.27588706 rev/d
Perigee alt
481.6 km
Apogee alt
484.5 km
Semi-major
6,861.2 km
B*
5.5994e-4
RAAN
173.3398°
Arg perigee
286.0722°
Mean anomaly
73.9896°
Rev number
1,541

§ Raw data

STARLINK-367221 67917U 26036P   26145.11315052  .00015182  00000+0  55994-3 0  99942 67917  42.9995 173.3398 0002124 286.0722  73.9896 15.27588706 15412

JSON: /api/v1/satellites/67917 · /tle

For live sub-satellite position, see the globe view (requires WebGL).

§ Visibility from observer

Set your observer location to see the next 7 days of passes ≥ 10°. The values pass through the URL so the page stays shareable.

No JS? Fill the form by hand. The geolocation button needs JavaScript.